Theta_e
336 333 336 334 333 334 337 335 336 336 336 335 334 332 328 324 319 317 317 318 322 325 330 326 336 335 336 336 337 339 337 338 342 339 337 334 333 337 338 339 337 338 338 338 338 338 338 338 338 339 340 339 339 339 339 338 337 337 336 336 336 336 336 336 335 335 335 335 335 335 336 336 337 338
335 336 335 336 334 338 334 335 336 337 336 335 335 334 334 330 324 321 318 317 324 325 329 327 327 338 339 340 340 338 336 341 343 336 336 335 335 336 337 337 337 337 337 336 335 336 337 337 337 337 336 337 337 338 339 339 338 337 337 336 337 337 336 336 335 335 334 334 335 335 336 336 336 336
338 336 335 337 336 338 335 336 337 341 336 335 336 335 336 334 329 327 323 319 324 330 325 329 334 331 330 333 334 336 338 340 342 337 335 335 338 339 337 336 335 334 334 333 333 333 333 333 334 334 334 334 335 336 337 337 337 338 337 338 336 337 337 337 335 335 335 335 335 335 335 335 335 335
337 336 334 336 335 335 333 333 334 336 337 336 335 335 335 334 333 331 328 324 324 329 328 328 330 332 331 332 331 330 333 340 346 336 334 334 340 338 335 337 335 334 333 333 332 331 330 331 332 333 333 334 335 337 336 335 335 335 335 334 335 336 336 334 334 335 335 334 334 334 334 334 334 335
335 334 332 333 333 335 334 333 336 336 334 334 332 334 333 332 333 331 328 325 326 327 330 331 331 332 332 331 331 330 332 334 335 339 334 335 334 334 333 334 337 336 333 332 332 331 331 331 331 332 333 333 335 336 337 335 334 333 333 332 331 331 332 332 331 333 334 334 334 334 334 335 334 334
336 335 334 333 334 335 333 333 334 334 334 333 333 332 332 329 330 331 329 326 323 322 324 329 331 332 334 330 331 330 330 331 334 333 334 335 334 334 334 334 335 337 335 332 330 330 330 330 331 331 331 332 333 333 334 333 332 331 331 330 330 329 328 327 329 331 331 332 333 334 334 334 334 334
335 334 335 334 335 338 334 335 334 334 332 331 330 332 334 330 330 333 330 326 324 323 324 327 328 328 330 330 330 331 333 334 334 331 331 332 335 336 334 333 333 335 334 332 331 329 329 329 329 329 330 330 330 330 329 328 328 328 327 327 328 328 327 327 327 329 329 331 332 333 333 333 334 334
335 333 332 333 334 335 333 333 333 333 333 332 332 331 332 331 332 331 331 330 326 325 324 326 328 329 329 330 332 334 335 333 332 331 331 332 332 333 335 334 333 334 333 331 330 329 328 327 327 327 327 327 326 325 325 324 325 325 324 324 324 324 324 324 325 327 326 327 328 330 332 333 332 330
335 334 333 333 334 334 332 333 332 332 332 332 331 329 331 331 331 333 333 331 330 327 326 326 328 330 330 331 332 332 331 331 330 329 329 330 330 331 332 334 335 334 332 331 330 329 328 328 327 327 326 326 325 324 323 323 323 322 322 322 322 322 323 323 322 323 323 323 324 323 325 327 328 329
336 335 334 334 334 334 333 333 333 333 331 331 330 329 330 332 333 332 331 331 330 328 327 326 327 327 329 328 329 331 331 329 327 326 326 326 328 329 329 331 334 335 334 333 333 331 330 329 328 327 327 326 325 324 323 322 321 320 319 317 317 318 319 320 321 321 321 321 322 323 323 325 325 326
336 336 335 334 335 334 334 332 331 331 331 332 330 331 330 330 331 331 331 332 331 330 329 328 328 327 328 328 325 327 330 329 327 325 323 323 326 328 329 329 332 333 333 332 332 331 331 330 329 324 323 324 324 324 323 322 320 320 318 316 315 315 315 316 317 318 319 319 320 319 319 319 322 324
336 336 336 336 335 335 335 333 332 332 331 332 330 331 331 332 332 330 329 328 327 326 327 326 325 325 326 324 327 329 326 323 322 325 325 322 322 323 324 327 327 329 330 329 331 332 331 329 328 325 325 326 325 324 324 325 325 323 320 318 319 319 317 316 316 316 316 315 315 316 316 316 318 320
336 336 337 337 337 339 343 345 341 339 338 332 329 329 332 332 329 328 329 329 327 326 326 326 326 324 324 324 324 322 321 319 320 322 323 322 323 325 325 326 328 330 328 327 328 327 328 327 327 328 327 328 329 328 329 328 330 327 321 320 321 321 320 318 317 317 317 316 316 315 315 316 317 318
336 335 336 338 344 346 348 349 347 343 342 340 333 330 332 333 330 329 327 326 325 325 324 325 324 322 322 322 322 321 321 322 322 322 322 321 323 323 323 324 326 329 328 326 324 324 327 328 326 325 324 326 328 326 324 323 324 324 322 322 321 321 320 318 318 317 316 316 315 315 314 314 316 316
335 335 335 334 341 345 346 345 347 345 343 342 339 338 337 337 332 328 326 326 326 325 325 323 323 322 321 321 322 322 323 323 322 322 323 323 322 321 318 317 321 327 326 323 321 321 324 325 321 321 321 322 322 323 323 325 325 323 322 321 321 320 320 320 320 319 316 315 315 314 314 314 315 315
335 335 335 336 337 337 339 340 341 344 344 340 339 337 336 335 335 333 330 328 326 325 324 322 322 321 320 321 322 322 322 322 322 324 323 322 320 319 317 316 316 320 325 320 319 318 320 321 320 319 321 322 322 323 323 323 323 322 321 321 321 320 320 319 320 320 319 319 318 319 318 318 318 317
335 335 335 335 336 338 346 344 340 338 339 338 335 334 334 334 331 328 328 329 331 328 325 324 322 322 321 320 322 325 325 325 323 322 321 321 319 319 317 316 316 318 322 319 317 315 317 319 319 318 320 321 322 323 324 323 322 321 320 320 320 320 319 319 319 319 319 318 317 317 316 316 316 316
336 336 335 335 335 338 340 338 337 335 334 334 334 332 332 332 335 332 326 324 324 328 329 325 323 324 324 324 325 328 327 325 323 320 319 318 316 316 316 317 316 318 322 318 316 314 315 317 317 316 318 321 321 322 322 321 320 321 320 319 318 318 317 317 317 317 316 316 315 314 313 312 312 313
337 336 337 337 338 338 336 337 339 338 338 336 335 335 334 335 335 335 335 332 328 328 328 327 326 325 326 326 327 328 329 328 325 322 319 318 317 316 316 316 318 319 321 320 317 312 314 316 316 316 318 319 318 318 318 318 317 317 315 316 316 316 315 315 316 315 315 315 314 314 313 312 312 311
338 337 337 339 338 337 335 338 335 338 336 334 334 333 334 335 335 335 335 330 332 334 330 328 327 328 328 328 330 330 327 322 320 323 320 318 317 315 314 313 315 316 319 319 316 313 312 313 313 313 314 314 312 314 313 315 315 314 314 315 314 314 313 313 314 314 314 315 315 315 313 311 310 310
337 338 338 339 339 337 335 331 326 331 341 333 333 332 332 334 334 333 334 329 325 325 323 322 323 323 321 318 314 314 315 319 318 316 314 314 315 311 310 312 312 314 316 317 317 314 312 311 309 307 309 309 309 308 308 309 312 313 312 313 313 313 313 313 313 314 315 315 315 315 315 313 312 312
335 340 348 342 334 332 331 324 324 326 334 333 333 332 331 331 331 331 332 332 330 324 319 317 317 317 317 317 316 315 314 313 315 314 313 315 314 312 312 310 312 314 316 318 317 307 307 308 306 305 306 308 308 308 308 310 313 315 313 313 314 314 314 314 314 314 315 315 315 315 313 312 312 316
332 333 339 339 336 333 325 318 320 321 329 330 331 332 329 328 328 328 325 326 324 323 324 324 326 325 324 324 322 324 321 318 319 318 317 317 314 313 313 314 313 312 312 315 311 306 304 305 306 305 304 304 307 311 311 313 313 315 317 318 319 318 317 316 314 313 313 313 313 314 312 311 312 317
331 333 332 327 320 319 318 316 315 314 316 325 329 331 328 326 325 322 320 324 323 321 321 321 322 322 322 322 322 322 323 324 325 323 321 319 317 315 315 316 313 308 306 309 313 306 306 306 306 308 307 304 304 308 312 313 315 316 317 318 318 319 320 319 317 315 312 312 312 313 312 311 312 316
329 329 330 328 319 316 315 314 312 310 312 320 328 328 327 324 320 317 318 321 328 319 321 321 321 321 321 321 321 321 320 321 320 319 317 320 319 316 312 307 308 307 308 310 316 308 306 308 307 308 308 307 308 308 310 312 315 316 319 319 318 320 320 320 319 320 316 313 312 311 310 311 311 314
329 329 331 329 320 314 313 311 309 308 310 315 322 316 307 306 314 319 320 319 318 319 319 318 318 317 315 315 316 316 318 318 321 316 315 315 314 313 312 309 307 307 307 311 315 310 308 308 308 308 307 306 307 310 309 312 315 317 319 319 319 319 320 319 319 319 319 319 320 317 318 315 315 314
330 330 330 329 320 314 310 307 307 307 308 314 314 303 305 307 310 319 317 317 318 316 316 317 316 314 316 316 315 316 315 315 315 314 313 313 313 314 315 315 312 310 311 312 315 315 311 308 311 308 307 307 307 309 311 311 313 317 317 318 319 319 320 319 318 318 319 319 320 316 314 314 314 314
330 326 324 323 315 309 306 304 304 306 310 315 302 303 308 311 314 316 315 315 316 317 315 314 313 315 315 315 314 314 316 316 312 313 313 312 312 312 312 312 314 316 314 313 313 312 311 309 309 310 309 309 309 309 309 314 316 316 315 317 319 319 319 319 318 319 320 320 320 320 320 320 321 322
328 320 314 309 305 303 301 303 306 307 308 306 305 306 307 317 315 316 313 314 315 314 314 315 315 316 317 313 313 312 313 314 313 313 313 314 314 314 313 313 315 315 318 317 312 310 309 308 307 308 309 310 311 312 313 312 314 315 316 316 315 318 319 319 318 317 318 318 318 318 318 318 318 320
309 306 304 304 305 305 307 311 313 315 313 309 309 308 311 315 315 315 313 315 315 314 314 314 314 314 312 312 311 314 313 311 310 310 311 311 311 310 309 307 308 308 310 311 311 310 309 309 309 310 310 312 315 314 315 314 314 315 316 315 316 319 319 317 317 317 318 317 317 317 318 318 318 319
311 310 312 312 311 312 312 316 318 317 316 312 310 311 313 313 314 316 315 315 315 316 315 315 314 312 312 313 315 310 309 309 309 312 312 308 306 309 307 306 306 306 307 308 309 310 310 310 311 312 312 313 315 315 316 316 314 314 315 317 317 312 315 316 317 316 316 317 317 317 316 317 317 319
317 316 312 311 315 313 313 312 315 315 317 314 313 311 313 314 316 319 321 322 317 315 315 314 312 313 313 309 308 310 308 307 308 310 310 308 306 309 307 304 302 304 305 307 308 311 319 317 314 314 315 315 313 315 316 315 315 315 315 317 317 316 316 315 315 315 316 316 314 314 314 315 315 316
319 316 316 316 316 314 314 313 314 314 317 317 316 316 316 316 317 317 316 316 317 316 314 313 312 312 309 307 309 308 307 308 307 306 305 307 307 306 304 304 304 304 304 305 307 307 307 308 313 313 312 312 314 316 315 313 314 315 314 314 314 314 314 315 315 315 315 314 312 312 312 314 316 317
317 316 315 316 316 316 314 314 315 316 316 317 317 317 318 318 317 317 317 315 314 314 313 311 309 308 308 306 306 306 306 305 304 305 308 304 305 303 303 303 303 304 306 305 304 305 306 306 306 307 308 313 317 317 317 314 314 315 315 314 314 312 314 315 315 315 314 312 311 310 311 312 315 317
318 317 316 316 316 317 316 316 317 318 318 318 318 318 318 318 318 314 312 309 310 310 310 309 308 308 307 305 305 303 304 306 304 303 305 305 306 303 303 301 302 303 303 303 303 304 304 304 304 304 307 311 311 311 320 319 315 314 314 313 313 313 313 315 314 313 313 312 312 310 310 311 312 315
318 317 317 317 318 318 318 319 320 319 319 318 317 315 315 314 314 311 308 309 308 308 308 306 306 306 305 304 304 304 304 305 302 301 302 302 302 303 302 303 305 303 302 302 303 303 303 303 303 304 307 307 306 306 308 320 321 316 313 312 313 313 314 313 313 313 311 310 311 310 308 308 310 313
318 319 320 318 318 317 316 316 316 315 314 313 312 311 311 312 311 309 309 309 309 309 307 307 305 305 303 304 303 303 303 301 300 301 301 301 302 301 301 302 303 302 302 302 303 303 303 302 305 308 308 306 305 305 307 313 313 316 316 313 312 313 312 312 311 309 309 310 309 310 309 309 309 311
318 318 318 316 316 316 315 313 314 314 314 314 313 313 313 312 312 311 309 306 306 305 305 304 304 303 301 302 299 299 299 300 302 302 302 301 299 299 300 299 300 301 301 302 303 304 304 303 305 308 308 306 305 306 307 311 312 312 312 312 312 312 312 310 308 307 307 309 309 310 310 309 309 309
316 315 315 314 316 313 312 313 315 312 313 312 313 312 311 309 308 306 306 306 305 304 303 303 303 302 301 299 300 300 300 300 300 300 301 299 300 299 299 300 300 301 300 301 301 301 303 302 304 306 306 306 307 309 310 309 310 314 314 311 310 310 309 308 307 307 307 306 307 309 310 311 310 313
315 314 314 314 314 314 314 315 312 311 311 312 311 310 308 308 307 307 306 306 304 305 303 303 303 301 299 299 300 299 301 301 300 299 299 300 301 301 300 301 301 301 300 301 301 301 301 302 305 305 307 310 313 315 315 314 314 315 314 312 307 308 308 308 307 306 306 307 307 306 304 305 304 307
314 313 312 315 313 313 311 311 312 312 312 312 312 310 308 307 305 305 305 305 308 303 303 301 300 300 299 298 299 301 300 300 299 299 302 300 301 301 303 304 300 300 299 299 300 300 301 303 308 312 315 313 315 315 310 307 307 308 309 310 307 306 307 308 308 307 306 308 307 304 302 302 302 304
314 313 314 314 313 313 313 312 312 312 312 309 308 310 308 309 307 312 308 307 304 305 303 302 301 302 300 301 301 302 299 298 298 299 300 299 298 299 302 301 299 299 299 299 299 300 303 305 308 308 308 311 311 308 306 307 306 307 308 309 309 307 308 307 308 308 308 307 305 302 301 301 302 302
316 315 315 314 313 313 313 313 310 309 309 309 309 309 307 307 305 304 302 301 302 304 303 302 301 301 301 301 301 300 299 298 298 298 299 299 299 298 298 299 299 300 299 300 301 302 303 303 304 305 307 309 308 308 306 307 307 307 307 306 306 307 308 309 308 308 308 309 307 305 304 302 299 297
315 316 313 312 312 312 312 313 311 310 310 309 309 308 306 302 302 301 300 300 300 300 301 302 301 301 301 301 300 298 299 299 299 299 299 300 300 299 299 300 301 300 300 300 300 301 301 302 303 304 306 308 308 307 307 307 307 308 307 306 306 305 304 306 308 308 308 308 307 306 307 306 305 305
315 314 313 312 312 311 311 311 311 312 311 309 306 305 305 303 303 301 301 301 301 300 300 301 302 300 300 300 298 297 298 302 301 300 301 299 298 299 300 300 300 300 299 300 299 300 300 300 302 303 307 309 308 307 309 310 308 308 307 305 304 304 304 305 304 303 303 303 305 306 305 306 306 306
Wind_Speed
6 5 5 6 5 4 4 4 5 5 5 6 6 6 6 6 4 1 1 2 1 3 1 0 2 1 3 4 3 3 4 5 5 3 4 5 5 8 12 13 14 14 14 14 13 13 14 14 14 14 15 15 14 14 14 13 13 13 13 13 13 12 12 10 11 11 11 11 11 11 12 12 12 12
3 4 5 5 5 4 5 5 4 4 6 6 6 5 5 6 6 4 4 4 2 2 3 0 0 1 1 2 3 3 5 8 8 4 5 5 5 9 12 11 10 10 11 12 13 13 13 14 15 15 15 15 16 15 14 14 14 14 13 14 15 14 13 12 11 12 12 11 12 11 12 12 12 12
4 4 5 5 5 5 4 4 4 4 6 6 6 5 5 5 5 5 4 1 4 2 3 1 1 0 1 2 2 2 4 7 8 6 6 6 9 11 9 12 12 10 11 12 13 13 13 13 14 15 16 16 15 15 15 15 15 15 15 15 16 15 14 13 12 12 12 12 12 12 13 13 13 13
5 4 4 4 4 5 5 4 4 4 5 6 6 6 6 6 6 6 5 5 6 3 2 2 3 4 3 4 4 5 5 4 8 5 6 6 9 7 6 9 11 13 13 12 13 13 14 15 16 16 16 16 16 12 15 16 16 17 18 17 16 15 15 15 14 12 13 13 13 13 14 14 14 14
6 6 5 4 4 4 4 5 5 5 6 5 5 5 6 6 6 6 6 5 6 4 3 3 4 4 4 3 4 5 4 4 3 5 5 5 5 6 6 6 10 11 13 14 14 14 14 14 15 16 17 18 17 16 15 18 18 18 18 17 17 16 16 15 15 15 13 13 13 13 14 14 14 14
6 6 6 6 6 5 6 5 5 5 5 4 4 4 5 6 6 6 6 6 6 6 2 4 4 3 3 5 3 4 4 5 4 4 5 5 6 6 6 6 6 11 12 13 14 14 14 14 15 16 17 18 18 18 18 18 18 18 17 17 17 17 17 17 17 15 17 16 15 14 14 14 15 15
6 6 7 7 6 5 6 5 6 5 5 5 6 6 6 7 6 5 6 4 4 5 5 5 4 4 4 5 5 4 5 5 5 5 5 6 6 6 7 7 6 10 13 14 13 13 12 12 14 15 16 17 18 18 18 17 17 18 18 17 17 17 18 18 19 17 18 15 15 15 15 14 14 14
8 8 7 6 6 5 6 6 6 6 6 7 6 5 5 6 6 6 5 5 5 5 5 4 5 5 4 5 5 4 4 5 5 5 5 5 6 6 6 7 7 9 13 13 13 13 13 13 13 15 16 16 17 17 17 17 17 17 17 17 17 17 18 19 19 18 17 18 18 17 16 15 15 15
9 9 8 7 6 6 7 6 6 6 7 7 7 6 5 5 5 4 5 6 5 5 6 5 4 5 4 5 5 4 5 5 5 4 5 6 6 6 6 6 6 9 13 13 13 13 13 15 16 16 16 16 17 17 16 17 17 18 18 18 17 17 18 18 18 19 19 19 19 19 18 18 18 17
9 8 8 7 7 7 8 8 7 7 8 6 6 5 5 5 4 6 6 6 6 6 7 6 6 4 5 4 4 4 5 5 5 5 5 4 4 4 5 5 5 4 4 4 5 7 10 12 16 16 16 17 18 18 18 17 17 18 18 18 18 18 18 18 18 19 19 19 19 20 19 18 18 18
8 8 7 7 8 8 8 8 8 7 7 7 7 8 7 6 6 6 6 5 5 6 6 6 7 6 5 5 6 5 4 4 4 5 5 5 4 3 4 5 4 4 5 5 8 8 9 11 9 11 13 15 17 17 17 16 16 16 17 18 18 18 18 18 19 19 19 19 18 17 17 18 18 18
8 8 8 9 9 9 8 8 8 9 8 8 8 8 7 7 7 7 6 5 6 6 6 7 7 6 6 4 4 3 1 2 3 2 3 5 5 6 3 3 4 2 3 5 5 6 9 9 11 13 15 16 15 15 14 15 16 17 17 16 16 17 18 18 18 17 16 17 18 18 19 19 19 19
8 8 8 9 10 10 11 12 10 9 9 8 8 7 6 7 7 6 6 6 6 6 6 7 5 5 6 5 4 4 4 4 6 3 1 3 3 3 4 5 4 4 5 5 5 6 6 7 6 5 5 5 6 7 9 9 13 14 14 15 15 16 16 17 17 17 18 19 19 19 18 19 19 19
9 9 8 8 11 13 15 14 14 13 13 12 10 8 8 8 7 7 6 6 6 6 6 7 6 6 7 6 5 5 4 4 2 1 1 2 4 3 5 5 4 3 4 4 6 6 5 4 4 4 6 6 6 7 7 8 11 13 16 15 14 14 15 16 17 17 18 18 17 17 17 17 18 19
9 8 7 6 11 13 14 14 18 15 15 15 14 13 13 10 9 7 7 6 6 6 6 6 5 6 7 6 5 5 5 3 3 3 2 4 3 4 4 6 5 3 4 3 4 7 4 4 6 6 8 9 8 8 9 13 15 16 16 16 16 16 16 16 17 16 14 14 15 16 17 17 18 19
8 8 9 8 7 8 10 10 12 15 16 14 13 12 11 11 11 10 8 7 5 5 6 5 7 5 6 6 5 5 3 4 4 4 4 4 5 5 4 4 6 4 4 7 6 8 6 5 6 7 8 9 8 9 12 15 16 16 16 16 16 16 17 15 13 14 15 16 16 17 17 18 18 19
8 8 8 8 7 6 9 9 9 9 9 11 11 9 8 7 9 10 12 10 6 4 5 6 7 7 5 5 6 5 4 3 4 4 5 4 4 5 5 6 6 8 4 4 7 9 7 5 6 7 8 9 8 9 12 16 16 16 16 16 16 17 17 17 17 16 15 15 16 16 17 18 19 20
8 9 8 7 8 7 9 8 7 7 7 4 2 0 2 4 8 10 10 9 9 7 7 7 8 8 4 7 6 6 3 3 5 4 6 5 5 5 7 7 6 7 4 6 7 7 6 6 7 8 9 9 8 7 10 14 13 13 14 14 14 14 13 13 14 15 16 16 17 18 18 20 21 21
7 7 9 8 8 7 8 7 9 6 6 7 7 5 2 4 7 7 5 4 5 6 6 7 9 9 7 8 7 5 4 6 6 5 5 6 6 6 4 4 5 7 7 8 5 7 5 5 6 7 7 5 5 4 6 8 9 9 11 11 13 14 15 16 16 17 17 17 18 19 19 20 21 22
7 8 8 8 7 7 8 6 9 5 2 3 1 2 5 7 7 7 6 4 6 7 8 7 8 9 9 8 6 6 6 5 3 4 2 2 4 4 5 7 4 5 6 7 6 5 4 2 3 3 4 4 5 5 6 8 12 13 14 15 16 16 16 16 16 16 17 18 20 21 21 21 22 23
3 4 4 6 6 3 3 11 12 2 2 2 3 6 8 7 6 8 6 7 11 13 13 11 9 8 8 5 5 5 6 6 6 2 2 7 6 4 6 5 4 6 6 4 4 3 6 2 3 6 4 4 6 6 6 5 8 12 13 14 14 14 15 16 17 18 20 21 22 21 22 22 22 25
0 3 6 3 7 9 7 11 10 9 3 1 5 6 8 7 7 7 5 5 4 5 6 6 7 7 7 7 8 9 10 11 6 2 7 8 2 4 5 6 5 5 4 5 2 4 4 4 3 7 6 5 3 5 6 7 8 11 11 13 15 16 16 17 18 19 20 21 22 22 22 22 22 18
1 5 8 11 8 8 6 12 6 3 1 5 8 8 6 7 8 6 2 1 1 2 3 2 2 2 4 3 3 4 9 11 8 6 8 6 4 6 6 6 5 5 4 2 4 7 5 6 4 3 6 7 5 4 6 7 6 6 6 8 9 14 16 17 18 20 21 22 22 22 22 22 21 15
3 4 6 10 13 12 13 8 7 9 11 11 10 6 6 6 8 1 1 1 1 2 3 3 3 3 4 5 4 4 5 6 5 5 4 5 4 4 5 5 3 4 3 1 3 3 3 3 6 3 5 7 8 5 5 7 7 7 6 7 8 13 16 16 15 19 19 18 20 21 22 22 21 14
5 5 5 5 10 10 11 13 14 16 16 12 7 5 5 3 0 1 1 2 5 3 3 3 4 6 5 5 5 6 5 4 1 3 3 1 2 2 3 4 4 5 6 4 4 2 4 5 8 5 5 4 7 8 7 7 7 7 7 8 10 10 9 9 9 10 13 17 18 20 21 21 23 18
5 6 7 7 7 11 12 14 15 11 6 5 2 2 5 3 1 1 1 2 3 4 5 5 5 4 4 5 6 6 3 1 1 1 1 1 1 2 4 5 5 4 6 7 8 5 5 5 6 7 7 7 9 8 9 9 8 8 8 7 8 9 9 10 9 10 10 10 11 13 15 19 20 22
6 6 7 7 14 14 12 12 8 5 6 4 3 6 4 3 2 2 2 2 3 4 4 4 5 6 5 5 6 3 1 1 2 3 3 4 4 4 5 4 4 6 8 7 6 5 4 5 5 6 9 8 9 9 8 9 10 7 7 8 8 9 9 8 9 10 10 10 11 17 17 19 21 24
6 6 5 5 7 11 12 8 9 8 7 4 7 7 6 5 2 1 2 3 4 4 5 5 5 6 6 6 4 2 2 2 3 4 4 5 5 6 7 6 6 5 6 6 7 6 6 6 8 8 8 9 9 10 11 9 10 10 10 9 8 9 8 7 8 10 11 10 10 11 11 12 12 13
4 5 7 8 8 8 11 12 9 7 6 7 8 8 6 5 3 4 4 5 5 5 6 7 7 6 7 6 4 3 2 2 2 4 5 4 4 5 5 6 5 5 4 5 6 6 7 7 9 9 9 8 8 9 9 11 10 11 10 11 11 9 8 8 8 9 10 11 11 11 11 12 13 12
9 10 11 12 13 12 11 8 5 5 6 8 9 7 7 5 5 5 5 5 5 7 7 6 6 7 5 3 2 2 1 2 5 4 3 5 5 5 6 6 7 5 5 7 8 8 8 8 8 9 9 9 8 9 9 10 11 10 10 10 12 12 9 6 7 8 10 12 12 12 12 12 13 13
7 8 8 8 8 8 11 9 8 7 6 5 5 4 5 6 7 6 7 7 7 7 7 7 7 6 4 2 0 1 2 4 5 4 4 4 5 5 5 4 7 8 7 6 7 8 8 8 8 7 7 7 7 8 9 8 10 11 11 10 9 11 11 10 10 10 10 12 12 12 13 12 12 13
6 6 7 7 5 4 3 1 0 1 3 4 4 5 6 7 7 8 10 8 5 6 7 6 3 2 0 0 1 2 3 4 5 4 3 3 5 6 4 4 6 7 8 8 6 6 7 7 7 7 7 8 9 10 8 7 9 10 11 10 9 10 10 11 12 11 11 11 13 13 13 13 13 12
5 5 6 5 4 3 3 3 3 3 4 5 6 7 7 6 6 6 5 7 7 6 5 5 4 3 1 2 2 3 3 4 5 4 5 4 5 6 3 4 6 7 8 8 7 7 7 7 6 7 7 8 9 9 8 9 10 8 9 10 9 10 10 10 11 12 12 12 13 13 15 13 11 12
5 5 5 5 5 5 5 5 5 6 6 6 7 8 8 7 6 6 6 5 5 2 3 3 3 2 1 2 3 3 4 5 6 5 4 4 4 3 6 6 7 6 5 7 7 8 7 7 8 8 7 7 6 7 8 9 11 10 8 8 9 11 11 10 11 12 11 11 13 15 15 16 13 10
5 5 5 5 4 4 5 6 7 7 7 8 8 8 7 7 7 3 5 6 5 4 3 2 1 1 1 2 3 3 4 4 5 6 4 4 5 5 6 6 7 6 6 7 7 7 7 8 8 8 8 6 6 4 8 10 8 9 8 7 8 10 12 11 12 12 12 13 10 13 15 15 15 11
5 5 5 4 5 5 6 7 8 9 9 9 8 5 4 5 4 6 5 4 4 3 3 2 1 0 1 3 3 3 3 3 5 6 7 6 6 6 6 5 5 6 6 7 8 8 7 8 7 8 7 6 7 10 11 6 9 7 9 9 9 10 11 12 12 12 12 12 11 11 13 16 16 15
5 4 4 5 6 5 4 1 2 4 6 6 6 5 4 4 3 5 4 3 3 2 1 0 0 1 2 1 2 3 4 5 6 6 6 6 5 5 5 5 5 7 7 7 7 8 6 6 7 7 7 8 8 9 10 8 6 9 8 9 9 9 12 12 13 13 11 11 13 11 12 13 15 15
5 5 6 2 1 3 4 4 3 4 4 3 4 3 3 3 4 4 4 5 5 4 3 3 2 2 2 2 3 5 6 6 5 5 4 5 6 6 6 6 7 7 7 7 7 7 7 6 7 6 6 8 9 10 10 8 8 6 6 5 8 10 10 11 13 14 14 11 11 12 11 13 13 14
5 4 3 3 4 5 3 4 5 4 3 4 4 5 6 6 6 5 5 4 3 3 2 1 1 1 2 3 4 3 6 6 5 4 6 6 6 5 6 7 7 7 6 7 7 7 6 6 7 6 7 8 9 10 9 9 9 9 9 8 6 8 9 11 13 14 13 14 13 11 10 10 14 19
4 3 3 5 5 5 4 3 4 4 3 3 5 5 5 4 5 5 4 3 3 2 1 0 1 1 2 3 4 5 4 3 3 5 6 6 5 6 7 7 7 7 6 7 7 7 7 7 7 7 9 9 10 9 7 7 7 7 6 7 7 6 9 10 12 13 14 13 13 13 14 12 12 10
4 4 3 6 6 5 5 4 4 4 5 5 4 3 3 4 4 3 3 2 1 1 1 1 3 2 2 4 5 5 2 4 4 5 4 5 7 7 9 7 6 6 6 7 7 7 8 8 10 16 13 9 8 5 4 6 9 8 9 8 9 11 12 11 10 11 12 13 12 12 13 13 13 13
6 5 4 6 6 6 6 4 4 4 5 4 4 3 3 4 3 4 2 1 1 1 1 3 2 1 3 6 4 1 4 4 4 5 6 6 7 7 7 6 6 7 7 8 8 8 9 9 9 9 8 7 5 5 7 7 9 9 9 9 9 10 12 14 15 13 13 11 12 13 12 10 9 9
6 6 6 5 6 6 6 6 4 3 4 4 2 2 5 6 3 3 2 1 1 1 3 4 4 4 4 1 3 3 4 5 5 6 7 7 6 6 6 7 6 7 7 7 7 8 8 9 8 8 8 6 3 3 6 8 7 8 9 10 11 11 10 12 13 16 17 15 11 11 10 11 11 11
6 7 7 6 7 6 5 5 3 3 4 2 2 1 4 5 3 2 2 1 3 3 2 2 3 1 3 4 2 4 4 5 6 6 7 6 5 6 6 6 6 7 7 7 8 8 8 8 8 8 7 6 5 6 7 8 8 7 8 9 11 12 13 12 11 11 12 13 16 19 21 19 15 15
6 6 7 7 7 6 5 4 4 4 3 1 3 6 5 3 2 1 0 1 1 3 5 3 1 3 3 2 4 4 4 5 6 6 5 5 6 6 5 6 6 7 7 8 7 9 9 8 8 7 5 5 3 5 6 6 7 7 8 11 13 12 11 11 13 14 13 11 14 20 20 20 20 20
Wind_Direction
194 182 175 192 185 180 154 150 157 155 144 144 144 148 152 163 143 185 268 280 230 301 3 54 310 143 209 200 233 203 213 225 213 201 199 214 227 234 231 231 237 242 248 254 249 239 241 245 245 244 243 245 247 249 252 251 251 250 254 257 259 256 254 250 250 252 254 258 261 267 273 277 280 283
195 195 203 188 181 185 159 170 160 146 155 145 154 158 157 147 161 177 191 264 224 264 307 167 212 19 320 295 283 250 242 236 222 210 221 229 238 251 256 252 243 239 241 247 250 246 238 238 244 248 249 246 245 245 245 250 255 252 250 251 257 259 256 249 247 249 251 253 255 256 263 271 274 275
196 195 195 190 178 162 159 167 172 163 158 158 164 170 161 168 164 174 170 200 283 189 234 287 349 334 260 256 241 246 222 238 227 218 217 226 233 240 251 261 268 254 239 237 241 244 244 241 241 243 248 251 249 247 243 245 251 253 252 248 249 252 256 256 253 251 251 250 250 251 254 259 264 268
195 185 187 187 167 173 162 169 172 162 175 167 172 174 176 183 182 173 174 198 247 262 207 232 274 275 266 269 280 289 286 251 234 227 227 227 233 243 254 262 261 266 264 253 245 240 241 243 245 246 247 249 250 244 247 247 246 247 251 255 256 255 258 264 265 256 251 250 249 247 247 248 254 262
199 198 200 204 197 179 165 175 175 167 177 174 174 176 172 187 188 172 183 198 236 284 269 238 236 246 242 280 241 248 253 265 253 230 232 235 235 239 247 256 266 263 261 262 262 261 255 246 243 245 248 251 251 249 241 247 247 246 247 249 253 255 256 260 262 263 254 250 247 240 241 245 246 248
198 193 199 206 204 191 188 192 190 185 169 171 191 201 181 191 195 193 177 206 206 241 286 263 276 273 229 248 243 217 245 255 249 240 238 236 229 234 233 239 244 244 245 251 255 255 256 257 252 247 247 248 250 250 249 248 250 250 247 246 247 250 252 254 257 257 258 258 254 248 243 244 243 246
195 188 195 200 194 189 187 186 187 184 188 196 198 205 194 191 198 195 191 172 210 229 244 217 231 233 238 219 253 244 235 236 219 224 237 237 239 232 229 234 241 247 252 255 258 258 252 249 251 252 252 252 252 252 251 249 248 249 251 250 248 247 248 251 253 255 259 257 254 255 251 243 241 243
196 193 187 196 193 184 187 197 196 196 193 199 193 179 179 168 184 191 188 189 200 222 246 255 214 226 223 251 245 244 250 248 247 229 242 241 239 237 236 233 234 241 243 248 253 260 262 258 252 251 251 252 251 251 252 253 255 254 252 250 251 251 250 250 254 257 258 260 260 256 254 252 250 249
196 194 192 193 192 191 191 203 204 202 200 200 190 184 181 177 190 194 196 208 203 213 232 253 236 223 232 235 243 235 249 261 257 258 245 248 246 245 241 236 238 241 245 250 255 258 262 264 262 258 256 256 257 257 254 253 254 257 258 258 256 254 253 253 251 252 253 255 258 259 256 256 257 254
197 193 192 191 196 199 198 203 202 197 200 193 189 188 193 190 189 199 210 207 205 211 230 237 268 262 241 263 245 231 219 243 268 278 275 279 266 261 276 259 250 243 243 253 255 259 259 258 257 259 259 260 260 260 259 255 253 253 257 260 260 259 258 255 253 251 251 251 252 256 259 258 257 259
191 190 190 194 199 208 205 194 192 190 192 191 195 194 191 196 192 201 204 196 202 209 228 243 239 253 257 232 259 264 236 234 232 252 290 295 287 253 231 262 266 261 264 256 258 261 259 257 257 253 251 252 255 259 261 263 263 262 261 261 261 261 261 260 257 254 253 255 256 260 263 266 264 261
197 197 198 202 205 208 208 203 200 192 193 191 194 194 186 187 187 190 195 203 210 224 231 237 244 234 247 259 253 288 345 316 308 260 218 255 277 289 282 249 267 277 258 276 281 276 274 273 267 265 266 268 268 262 261 260 258 258 260 263 266 266 263 263 263 261 259 257 254 251 250 252 255 257
205 204 205 205 209 205 201 202 196 194 189 184 190 200 187 186 186 194 198 207 211 224 228 246 246 249 253 252 254 269 253 230 233 240 259 273 267 269 295 291 268 253 271 271 270 269 264 274 271 272 281 280 279 271 261 261 262 263 260 258 259 261 262 260 258 255 251 250 250 250 249 249 251 253
206 208 209 211 207 207 207 207 208 204 198 192 188 193 193 189 188 192 197 208 213 217 228 237 236 246 252 250 229 230 229 219 231 288 251 259 273 291 284 287 274 277 286 284 279 273 271 270 288 311 302 291 281 283 278 271 265 266 267 264 259 257 256 254 252 251 250 250 252 254 252 250 250 252
206 210 212 214 218 219 220 220 219 213 210 204 198 195 193 184 178 185 202 218 214 216 226 231 227 235 249 250 240 237 232 216 201 207 210 242 251 260 276 284 293 284 264 264 270 279 274 286 289 288 281 276 271 262 260 261 264 263 262 264 264 262 258 256 254 255 260 262 260 258 258 255 253 253
207 211 215 215 215 221 222 216 219 216 213 209 200 189 183 181 191 191 188 210 222 214 220 228 234 233 239 248 237 242 223 225 215 224 220 225 241 250 245 247 262 253 269 277 275 275 278 272 262 264 260 261 254 252 254 259 261 263 265 266 267 266 268 272 273 268 261 259 259 261 262 262 261 260
206 210 216 217 215 219 183 187 194 190 197 197 193 185 189 206 215 219 223 219 219 188 207 224 243 231 232 240 244 227 212 191 216 220 232 240 230 225 237 246 258 272 255 266 271 272 271 264 259 252 253 254 253 254 257 258 261 265 267 268 271 275 275 272 272 273 271 268 268 268 268 269 269 268
207 211 216 214 214 199 190 182 171 182 181 155 104 10 261 249 252 242 233 227 223 217 221 220 234 247 216 233 236 232 214 201 230 216 232 227 236 234 238 245 249 265 267 254 269 278 269 248 249 252 256 255 256 250 253 259 268 275 278 277 274 271 268 265 263 265 268 269 271 273 275 277 276 274
202 206 217 220 208 191 186 173 167 167 156 155 169 203 233 264 264 262 250 208 205 217 225 224 231 243 241 239 245 249 227 225 220 195 210 220 231 243 269 299 267 276 265 260 252 267 260 232 237 247 259 283 292 283 296 298 290 286 285 284 282 279 276 275 275 275 277 280 279 278 278 277 277 276
213 213 214 208 195 187 182 150 115 69 74 87 119 245 241 246 251 256 250 227 211 214 212 217 224 231 236 234 234 234 221 215 232 246 272 294 262 261 271 264 274 267 269 256 249 257 263 246 263 284 291 306 298 298 301 294 293 291 290 290 287 286 284 283 281 280 279 278 278 277 276 275 273 273
210 222 210 205 205 179 143 109 107 117 265 182 215 242 247 247 251 259 267 248 241 241 235 229 238 248 253 260 270 262 246 225 224 197 324 279 260 254 270 269 260 258 258 259 238 279 300 342 345 302 285 291 293 296 288 283 283 284 285 285 284 281 278 276 277 278 277 276 277 277 276 276 275 273
177 291 250 107 76 78 104 128 144 189 204 315 264 257 249 253 256 260 260 251 253 255 254 241 224 220 227 226 229 235 244 255 262 188 244 255 270 264 250 270 261 275 276 277 32 354 278 301 318 318 307 303 259 274 279 278 275 276 276 273 271 271 271 272 273 274 275 275 276 277 276 276 276 276
111 70 96 128 142 116 92 80 65 330 292 233 245 244 243 248 252 251 258 274 345 343 339 333 333 310 288 269 258 265 268 266 259 219 235 257 251 258 265 275 298 297 277 261 42 344 307 326 299 310 319 304 278 251 255 264 269 273 272 272 272 267 268 270 272 272 274 275 275 274 275 275 274 275
87 104 88 74 69 83 108 136 178 221 235 238 246 237 237 244 250 268 351 312 286 287 293 293 300 286 279 286 285 275 274 279 284 276 217 219 232 245 266 265 255 257 253 262 48 294 258 246 293 292 262 288 306 296 281 281 276 272 270 274 274 274 273 273 273 270 268 267 269 271 271 270 267 269
135 123 127 120 128 150 182 193 201 213 226 227 227 212 234 230 162 47 341 311 326 318 296 294 289 282 283 284 283 273 268 280 15 37 37 97 159 183 241 269 277 273 272 263 248 293 284 297 291 299 276 241 271 291 285 279 277 276 275 271 273 273 272 270 269 271 271 270 269 267 266 265 263 258
150 160 159 160 177 198 205 214 222 232 213 188 162 117 122 134 183 259 261 282 296 295 299 286 285 297 306 300 295 297 311 26 61 27 327 272 234 231 224 226 251 280 289 288 298 291 284 288 272 283 285 286 283 280 294 288 279 277 273 266 260 266 267 271 269 272 275 278 278 273 271 270 269 266
180 168 165 175 187 199 221 240 239 175 142 131 124 142 158 196 220 263 277 280 288 284 283 285 287 289 287 293 289 281 306 304 326 323 308 308 310 307 296 277 237 242 260 277 283 274 249 257 272 274 279 279 283 288 282 288 289 282 278 274 272 270 266 264 270 274 278 278 276 274 273 269 267 265
156 160 174 177 199 215 227 197 161 158 162 160 158 176 200 216 234 260 271 271 261 265 267 273 271 264 261 248 236 242 214 241 272 295 310 312 306 293 282 277 276 265 265 264 265 257 244 255 277 274 266 273 277 280 283 275 275 283 286 284 275 273 272 262 268 276 278 279 282 281 281 281 276 274
139 137 151 154 158 149 143 149 145 148 169 165 180 196 202 211 215 217 229 238 243 246 244 240 244 249 246 222 230 228 221 262 321 325 299 294 287 278 271 269 270 273 268 267 266 270 270 270 271 276 278 272 267 267 265 273 282 289 291 299 296 287 283 275 269 272 283 283 280 278 276 279 281 277
112 122 121 126 132 138 145 143 160 176 191 199 195 191 197 208 214 214 211 232 232 237 241 239 241 246 244 253 253 217 247 338 297 277 276 293 300 299 298 306 299 281 269 272 274 273 273 271 268 267 272 272 262 263 263 277 285 285 292 289 288 292 274 251 264 273 279 282 281 283 280 277 276 278
108 123 135 150 157 157 168 171 176 181 182 176 203 214 214 218 219 213 208 213 219 228 237 245 244 248 253 251 73 317 312 290 279 265 269 293 285 294 293 298 298 304 289 272 268 270 270 269 268 266 268 274 274 264 268 269 281 289 289 288 292 290 297 296 290 286 286 285 288 285 284 281 276 269
134 130 124 123 120 120 142 213 83 226 177 192 195 217 217 225 225 225 227 231 233 238 230 243 282 316 225 126 267 273 285 272 276 276 281 287 296 291 307 321 300 292 298 300 295 282 273 267 268 271 265 273 282 284 282 277 275 282 286 283 281 283 289 296 298 297 293 296 293 290 286 285 284 283
112 107 111 109 129 154 173 187 205 211 203 212 213 217 224 226 229 227 219 225 232 241 246 260 254 231 190 260 274 282 293 285 279 290 306 288 273 297 297 277 283 296 301 305 305 300 294 290 280 274 274 279 269 265 274 289 282 272 272 282 290 288 292 291 295 299 306 301 293 293 291 285 281 277
134 140 144 170 176 183 190 201 211 211 208 216 220 225 225 225 224 228 225 228 233 199 152 165 133 188 213 274 283 290 277 288 296 297 293 288 300 300 298 300 293 293 293 290 300 300 302 301 305 303 297 283 263 247 251 260 275 282 278 284 285 291 294 299 299 303 304 298 296 295 293 295 289 278
143 157 178 191 199 205 202 216 221 216 210 214 216 222 218 218 224 185 152 167 159 147 144 136 149 186 201 258 260 275 291 302 301 308 303 299 305 296 293 299 300 300 299 304 301 296 300 305 309 310 306 301 305 277 225 233 268 273 285 280 290 295 303 306 307 308 305 298 294 291 296 294 294 293
164 170 180 197 212 217 218 226 227 219 211 206 205 194 191 206 188 156 165 179 137 140 139 176 206 225 263 295 307 309 309 302 310 315 311 310 305 301 304 299 292 297 302 295 291 293 301 302 304 306 303 309 325 321 322 229 219 271 292 298 298 303 306 308 306 305 302 302 299 297 297 300 302 305
171 182 200 220 222 210 215 224 70 61 66 78 91 107 115 130 166 162 156 135 93 104 141 109 335 352 19 15 351 345 332 328 311 304 303 300 302 312 316 308 309 304 303 293 290 295 297 299 301 306 309 317 321 315 301 313 265 239 263 285 303 309 312 312 311 308 307 305 301 300 296 298 300 302
185 201 213 224 333 35 79 93 87 77 76 85 90 89 94 89 92 97 92 77 75 65 53 54 57 44 353 348 0 339 321 302 298 297 298 318 326 320 309 307 308 302 296 293 298 295 295 296 304 303 313 310 312 308 310 309 316 295 234 269 300 310 314 313 314 315 312 310 304 305 303 296 298 301
171 144 118 80 68 100 100 99 101 102 85 67 60 59 68 74 94 100 94 107 112 115 112 83 81 322 341 319 328 326 305 301 313 319 326 324 315 310 314 313 305 299 304 304 303 302 305 307 301 305 309 306 300 298 296 303 297 294 296 286 284 308 319 321 314 311 312 316 314 306 292 286 283 284
173 153 147 121 127 121 111 91 89 103 109 98 84 97 113 117 121 135 147 149 140 126 111 141 302 343 328 330 326 317 298 294 320 330 326 316 311 314 310 301 297 296 311 307 311 308 309 301 300 309 308 293 276 272 278 274 269 273 277 290 310 320 313 319 314 313 317 319 314 318 320 320 317 314
174 170 182 145 141 131 123 113 108 97 86 88 116 128 119 126 118 123 127 120 98 77 344 307 289 316 335 316 305 276 301 341 342 332 322 318 314 311 303 304 306 311 316 310 306 308 303 295 290 298 302 295 291 315 317 320 318 319 319 318 331 335 321 312 309 316 317 318 320 324 322 324 320 318
173 171 168 154 142 145 134 127 117 107 118 128 126 135 117 108 122 145 146 170 184 203 248 272 285 323 317 287 271 1 28 355 340 324 315 312 309 306 304 310 312 313 320 313 309 298 291 293 304 312 309 308 320 340 323 315 312 316 317 324 326 330 327 318 317 322 325 321 330 331 327 320 315 313
173 161 160 158 135 136 135 140 147 140 142 134 121 129 108 134 142 127 121 65 58 12 287 268 278 272 246 272 39 43 19 345 322 309 304 304 301 300 308 311 307 307 309 301 295 292 296 306 313 317 315 313 310 334 314 314 311 314 324 332 331 327 324 328 331 331 332 326 328 331 333 332 336 332
173 155 159 156 145 143 138 135 148 138 139 135 168 104 103 123 145 192 192 149 50 342 267 245 223 190 73 67 35 10 353 318 307 299 301 294 296 308 310 306 314 316 313 309 308 306 307 314 314 318 316 320 330 345 329 323 321 324 331 329 329 332 332 334 334 335 335 337 341 343 342 341 334 319
169 148 151 155 154 161 157 152 135 143 148 139 74 85 128 127 157 187 71 36 21 297 298 294 39 64 72 38 35 347 316 304 304 301 292 307 319 314 306 313 319 318 315 312 315 311 316 319 318 319 317 328 347 342 323 319 320 327 335 341 337 334 333 335 338 341 340 335 342 343 341 340 336 333